Change the Weather History Date:

Thursday, February 21, 2013

  Actual Average (KUZA) Record (KUZA)
Temperature  
Mean Temperature 46 °F -  
Max Temperature 59 °F 58 °F 75 °F (1986)
Min Temperature 32 °F 35 °F 19 °F (1959)
Degree Days  
Heating Degree Days 20    
Moisture  
Dew Point 24 °F    
Average Humidity 47    
Maximum Humidity 65    
Minimum Humidity 23    
Precipitation  
Precipitation 0.00 in - - ()
Sea Level Pressure  
Sea Level Pressure 30.15 in    
Wind  
Wind Speed 5 mph (NE)    
Max Wind Speed 10 mph    
Max Gust Speed -    
Visibility 10 miles    
Events      
Averages and records for this station are not official NWS values.
T = Trace of Precipitation, MM = Missing Value Source: NWS Daily Summary

Daily Weather History Graph

Daily Weather History Graph

Search for Another Location

Airport or City:

Trip Planner

Search our weather history database for the weather conditions in past years. The results will help you decide how hot, cold, wet, or windy it might be!

Date:

Astronomy

Feb. 21, 2013 Rise Set
Actual Time 7:03 AM EST 6:13 PM EST
Civil Twilight 6:37 AM EST 6:39 PM EST
Nautical Twilight 6:08 AM EST 7:08 PM EST
Astronomical Twilight 5:39 AM EST 7:37 PM EST
Moon 2:33 PM EST (2/21) 4:00 AM EST (2/21)
Length of Visible Light 12h 01m
Length of Day
11h 10m
Waxing Gibbous, 83% of the Moon is Illuminated
Feb 21
Waxing Gibbous
Feb 25
Full
Mar 4
Last Quarter
Mar 11
New
Mar 19
First Quarter

Hourly Weather History & Observations

Time (EST) Temp. Windchill Dew Point Humidity Pressure Visibility Wind Dir Wind Speed Gust Speed Precip Events Conditions
12:15 AM 35.6 °F 30.7 °F 23.0 °F 60% 30.12 in 10.0 mi NNE 5.8 mph - N/A   Clear
12:35 AM 33.8 °F 27.0 °F 23.0 °F 65% 30.12 in 10.0 mi NNE 8.1 mph - N/A   Clear
12:55 AM 35.6 °F 30.7 °F 23.0 °F 60% 30.13 in 10.0 mi NE 5.8 mph - N/A   Clear
1:15 AM 33.8 °F 28.6 °F 23.0 °F 65% 30.13 in 10.0 mi NE 5.8 mph - N/A   Clear
1:35 AM 33.8 °F 28.6 °F 23.0 °F 65% 30.12 in 10.0 mi NE 5.8 mph - N/A   Clear
1:55 AM 33.8 °F 28.6 °F 21.2 °F 60% 30.12 in 10.0 mi NE 5.8 mph - N/A   Clear
2:15 AM 33.8 °F 29.6 °F 21.2 °F 60% 30.13 in 10.0 mi NE 4.6 mph - N/A   Clear
2:35 AM 33.8 °F 28.6 °F 21.2 °F 60% 30.13 in 10.0 mi NE 5.8 mph - N/A   Clear
2:55 AM 33.8 °F 28.6 °F 21.2 °F 60% 30.14 in 10.0 mi NNE 5.8 mph - N/A   Clear
3:15 AM 32.0 °F 25.6 °F 21.2 °F 64% 30.14 in 10.0 mi NNE 6.9 mph - N/A   Clear
3:35 AM 32.0 °F 26.4 °F 21.2 °F 64% 30.14 in 10.0 mi NNE 5.8 mph - N/A   Clear
3:55 AM 32.0 °F 25.6 °F 19.4 °F 60% 30.13 in 10.0 mi NNE 6.9 mph - N/A   Clear
4:15 AM 32.0 °F 24.8 °F 19.4 °F 60% 30.13 in 10.0 mi NE 8.1 mph - N/A   Clear
4:35 AM 32.0 °F 26.4 °F 19.4 °F 60% 30.14 in 10.0 mi NE 5.8 mph - N/A   Clear
4:55 AM 32.0 °F 26.4 °F 19.4 °F 60% 30.15 in 10.0 mi NE 5.8 mph - N/A   Clear
5:15 AM 32.0 °F 26.4 °F 21.2 °F 64% 30.16 in 10.0 mi NE 5.8 mph - N/A   Clear
5:35 AM 32.0 °F 24.8 °F 19.4 °F 60% 30.16 in 10.0 mi NE 8.1 mph - N/A   Clear
6:15 AM 32.0 °F 25.6 °F 21.2 °F 64% 30.17 in 10.0 mi NE 6.9 mph - N/A   Clear
6:35 AM 32.0 °F 26.4 °F 21.2 °F 64% 30.17 in 10.0 mi NNE 5.8 mph - N/A   Clear
6:55 AM 32.0 °F 26.4 °F 21.2 °F 64% 30.18 in 10.0 mi NNE 5.8 mph - N/A   Clear
7:15 AM 32.0 °F 27.5 °F 21.2 °F 64% 30.19 in 10.0 mi NNE 4.6 mph - N/A   Clear
7:35 AM 32.0 °F 27.5 °F 21.2 °F 64% 30.20 in 10.0 mi NNE 4.6 mph - N/A   Clear
8:15 AM 35.6 °F 30.7 °F 19.4 °F 52% 30.22 in 10.0 mi NE 5.8 mph - N/A   Clear
8:55 AM 37.4 °F 32.1 °F 19.4 °F 48% 30.22 in 10.0 mi NE 6.9 mph - N/A   Clear
9:15 AM 41.0 °F 36.4 °F 21.2 °F 45% 30.22 in 10.0 mi NE 6.9 mph - N/A   Clear
9:35 AM 42.8 °F 38.0 °F 21.2 °F 42% 30.21 in 10.0 mi ENE 8.1 mph - N/A   Clear
9:55 AM 42.8 °F 40.1 °F 21.2 °F 42% 30.23 in 10.0 mi East 4.6 mph - N/A   Clear
10:15 AM 44.6 °F - 21.2 °F 39% 30.22 in 10.0 mi Calm Calm - N/A   Clear
10:35 AM 46.4 °F - 21.2 °F 37% 30.22 in 10.0 mi Calm Calm - N/A   Clear
10:55 AM 46.4 °F - 21.2 °F 37% 30.22 in 10.0 mi Calm Calm - N/A   Clear
11:15 AM 46.4 °F - 17.6 °F 32% 30.21 in 10.0 mi Calm Calm - N/A   Clear
11:35 AM 50.0 °F - 21.2 °F 32% 30.20 in 10.0 mi East 3.5 mph - N/A   Clear
11:55 AM 50.0 °F - 21.2 °F 32% 30.19 in 10.0 mi ENE 3.5 mph - N/A   Clear
12:15 PM 51.8 °F - 21.2 °F 30% 30.19 in 10.0 mi NE 3.5 mph - N/A   Clear
12:35 PM 53.6 °F - 23.0 °F 30% 30.17 in 10.0 mi Calm Calm - N/A   Clear
12:55 PM 53.6 °F - 21.2 °F 28% 30.16 in 10.0 mi ESE 3.5 mph - N/A   Clear
1:15 PM 53.6 °F - 21.2 °F 28% 30.15 in 10.0 mi ESE 5.8 mph - N/A   Clear
1:35 PM 55.4 °F - 21.2 °F 26% 30.13 in 10.0 mi Calm Calm - N/A   Clear
1:55 PM 55.4 °F - 23.0 °F 29% 30.11 in 10.0 mi NE 4.6 mph - N/A   Clear
2:15 PM 59.0 °F - 23.0 °F 25% 30.10 in 10.0 mi Calm Calm - N/A   Clear
2:35 PM 57.2 °F - 21.2 °F 25% 30.09 in 10.0 mi Calm Calm - N/A   Clear
2:55 PM 59.0 °F - 21.2 °F 23% 30.09 in 10.0 mi Calm Calm - N/A   Clear
3:15 PM 59.0 °F - 23.0 °F 25% 30.11 in 10.0 mi SE 3.5 mph - N/A   Clear
3:35 PM 59.0 °F - 23.0 °F 25% 30.12 in 10.0 mi SSW 5.8 mph - N/A   Clear
3:55 PM 59.0 °F - 23.0 °F 25% 30.11 in 10.0 mi SE 3.5 mph - N/A   Clear
4:15 PM 59.0 °F - 24.8 °F 27% 30.10 in 10.0 mi Calm Calm - N/A   Clear
4:35 PM 59.0 °F - 24.8 °F 27% 30.10 in 10.0 mi Calm Calm - N/A   Clear
5:15 PM 57.2 °F - 30.2 °F 36% 30.11 in 10.0 mi East 3.5 mph - N/A   Clear
5:35 PM 55.4 °F - 30.2 °F 38% 30.11 in 10.0 mi Calm Calm - N/A   Clear
5:55 PM 55.4 °F - 30.2 °F 38% 30.11 in 10.0 mi Calm Calm - N/A   Clear
6:15 PM 53.6 °F - 30.2 °F 41% 30.12 in 10.0 mi ESE 4.6 mph - N/A   Clear
6:35 PM 51.8 °F - 30.2 °F 44% 30.12 in 10.0 mi East 4.6 mph - N/A   Clear
7:15 PM 50.0 °F - 30.2 °F 47% 30.12 in 10.0 mi East 4.6 mph - N/A   Clear
7:55 PM 50.0 °F - 30.2 °F 47% 30.12 in 10.0 mi East 8.1 mph - N/A   Clear
8:35 PM 48.2 °F - 30.2 °F 50% 30.14 in 10.0 mi East 3.5 mph - N/A   Clear
8:55 PM 48.2 °F - 30.2 °F 50% 30.13 in 10.0 mi ENE 5.8 mph - N/A   Clear
9:15 PM 50.0 °F - 30.2 °F 47% 30.17 in 10.0 mi Calm Calm - N/A   Scattered Clouds
9:35 PM 50.0 °F - 28.4 °F 43% 30.19 in 10.0 mi Calm Calm - N/A   Mostly Cloudy
9:55 PM 46.4 °F 43.5 °F 32.0 °F 57% 30.17 in 10.0 mi ENE 5.8 mph - N/A   Overcast
10:15 PM 48.2 °F - 30.2 °F 50% 30.18 in 10.0 mi NE 4.6 mph - N/A   Overcast
10:35 PM 48.2 °F - 30.2 °F 50% 30.18 in 10.0 mi ENE 5.8 mph - N/A   Overcast
10:55 PM 48.2 °F - 30.2 °F 50% 30.19 in 10.0 mi NE 5.8 mph - N/A   Scattered Clouds
11:15 PM 48.2 °F - 32.0 °F 54% 30.20 in 10.0 mi NE 4.6 mph - N/A   Mostly Cloudy
11:55 PM 46.4 °F 41.5 °F 32.0 °F 57% 30.20 in 10.0 mi NE 10.4 mph - N/A   Overcast